Time,TemperatureF,DewpointF,PressureIn,WindDirection,WindDirectionDegrees,WindSpeedMPH,WindSpeedGustMPH,Humidity,HourlyPrecipIn,Conditions,Clouds,dailyrainin,SoftwareType,DateUTC
2013-02-17 00:00:00,47.2,36.8,30.10,West,271,0.0,5.0,67,0.00,RA,,0.00,WeatherDisplay:10.37,2013-02-16 23:00:00,
2013-02-17 00:10:00,47.0,36.2,30.11,NE,40,2.0,4.0,66,0.00,CLR,,0.00,WeatherDisplay:10.37,2013-02-16 23:10:00,
2013-02-17 00:20:00,46.9,36.1,30.11,North,10,1.0,6.0,66,0.00,CLR,,0.00,WeatherDisplay:10.37,2013-02-16 23:20:00,
2013-02-17 00:30:00,46.9,36.1,30.11,NE,46,1.0,4.0,66,0.00,CLR,,0.00,WeatherDisplay:10.37,2013-02-16 23:30:00,
2013-02-17 00:40:00,47.0,36.6,30.11,NW,312,1.0,5.0,67,0.00,CLR,,0.00,WeatherDisplay:10.37,2013-02-16 23:40:00,
2013-02-17 00:50:00,47.0,36.6,30.10,North,3,0.0,4.0,67,0.00,CLR,,0.00,WeatherDisplay:10.37,2013-02-16 23:50:00,
2013-02-17 01:00:00,46.9,36.2,30.10,NE,47,1.0,4.0,66,0.00,CLR,,0.00,WeatherDisplay:10.37,2013-02-17 00:00:00,
2013-02-17 01:10:00,46.9,36.1,30.10,NNE,17,1.0,5.0,66,0.00,CLR,,0.00,WeatherDisplay:10.37,2013-02-17 00:10:00,
2013-02-17 01:20:00,46.9,36.1,30.10,North,0,1.0,6.0,66,0.00,CLR,,0.00,WeatherDisplay:10.37,2013-02-17 00:20:00,
2013-02-17 01:30:00,46.7,35.9,30.10,North,7,1.0,6.0,66,0.00,CLR,,0.00,WeatherDisplay:10.37,2013-02-17 00:30:00,
2013-02-17 01:40:00,46.5,35.7,30.10,North,9,1.0,6.0,66,0.00,CLR,,0.00,WeatherDisplay:10.37,2013-02-17 00:40:00,
2013-02-17 01:50:00,46.3,35.6,30.10,NNE,12,0.0,7.0,66,0.00,CLR,,0.00,WeatherDisplay:10.37,2013-02-17 00:50:00,
2013-02-17 02:00:00,46.3,35.2,30.10,North,360,1.0,5.0,65,0.00,CLR,,0.00,WeatherDisplay:10.37,2013-02-17 01:00:00,
2013-02-17 02:10:00,46.5,35.3,30.10,NNE,24,1.0,4.0,65,0.00,CLR,,0.00,WeatherDisplay:10.37,2013-02-17 01:10:00,
2013-02-17 02:20:00,46.4,35.3,30.09,North,351,1.0,3.0,65,0.00,CLR,,0.00,WeatherDisplay:10.37,2013-02-17 01:20:00,
2013-02-17 02:30:00,46.3,35.2,30.09,NE,36,0.0,4.0,65,0.00,CLR,,0.00,WeatherDisplay:10.37,2013-02-17 01:30:00,
2013-02-17 02:40:00,46.3,35.1,30.09,NNE,17,1.0,3.0,65,0.00,CLR,,0.00,WeatherDisplay:10.37,2013-02-17 01:40:00,
2013-02-17 02:50:00,46.3,35.2,30.09,North,355,1.0,3.0,65,0.00,CLR,,0.00,WeatherDisplay:10.37,2013-02-17 01:50:00,
2013-02-17 03:00:00,46.4,34.9,30.09,NNW,337,1.0,3.0,64,0.00,CLR,,0.00,WeatherDisplay:10.37,2013-02-17 02:00:00,
2013-02-17 03:20:00,46.4,34.9,30.08,NW,324,0.0,3.0,64,0.00,CLR,,0.00,WeatherDisplay:10.37,2013-02-17 02:20:00,
2013-02-17 03:30:00,46.4,34.9,30.08,NNW,338,0.0,4.0,64,0.00,CLR,,0.00,WeatherDisplay:10.37,2013-02-17 02:30:00,
2013-02-17 03:40:00,46.3,34.8,30.08,NW,313,0.0,4.0,64,0.00,CLR,,0.00,WeatherDisplay:10.37,2013-02-17 02:40:00,
2013-02-17 03:50:00,46.1,34.6,30.08,NW,325,1.0,3.0,64,0.00,CLR,,0.00,WeatherDisplay:10.37,2013-02-17 02:50:00,
2013-02-17 04:00:00,46.0,34.5,30.08,NNW,327,2.0,4.0,64,0.00,CLR,,0.00,WeatherDisplay:10.37,2013-02-17 03:00:00,
2013-02-17 04:10:00,45.9,34.4,30.07,NNW,331,1.0,4.0,64,0.00,CLR,,0.00,WeatherDisplay:10.37,2013-02-17 03:10:00,
2013-02-17 04:20:00,45.8,34.7,30.08,NNW,329,0.0,4.0,65,0.00,CLR,,0.00,WeatherDisplay:10.37,2013-02-17 03:20:00,
2013-02-17 04:30:00,45.7,34.6,30.07,NW,320,0.0,3.0,65,0.00,CLR,,0.00,WeatherDisplay:10.37,2013-02-17 03:30:00,
2013-02-17 04:40:00,45.6,34.5,30.07,NNW,340,0.0,2.0,65,0.00,CLR,,0.00,WeatherDisplay:10.37,2013-02-17 03:40:00,
2013-02-17 04:50:00,45.7,34.6,30.08,NNE,33,0.0,2.0,65,0.00,CLR,,0.00,WeatherDisplay:10.37,2013-02-17 03:50:00,
2013-02-17 05:00:00,45.6,34.5,30.07,NNW,336,0.0,2.0,65,0.00,CLR,,0.00,WeatherDisplay:10.37,2013-02-17 04:00:00,
2013-02-17 05:10:00,45.6,34.5,30.07,NW,313,0.0,3.0,65,0.00,CLR,,0.00,WeatherDisplay:10.37,2013-02-17 04:10:00,
2013-02-17 05:20:00,45.4,34.3,30.07,NW,326,1.0,4.0,65,0.00,CLR,,0.00,WeatherDisplay:10.37,2013-02-17 04:20:00,
2013-02-17 05:30:00,45.3,34.6,30.07,NNW,338,1.0,5.0,66,0.00,CLR,,0.00,WeatherDisplay:10.37,2013-02-17 04:30:00,
2013-02-17 05:40:00,45.2,34.5,30.07,NNW,334,2.0,5.0,66,0.00,CLR,,0.00,WeatherDisplay:10.37,2013-02-17 04:40:00,
2013-02-17 05:50:00,45.1,34.4,30.07,NNW,338,0.0,3.0,66,0.00,CLR,,0.00,WeatherDisplay:10.37,2013-02-17 04:50:00,
2013-02-17 06:00:00,45.1,34.4,30.07,NW,326,1.0,3.0,66,0.00,CLR,,0.00,WeatherDisplay:10.37,2013-02-17 05:00:00,
2013-02-17 06:10:00,45.1,34.4,30.07,NW,316,0.0,3.0,66,0.00,CLR,,0.00,WeatherDisplay:10.37,2013-02-17 05:10:00,
2013-02-17 06:20:00,45.3,34.2,30.07,NW,324,0.0,2.0,65,0.00,CLR,,0.00,WeatherDisplay:10.37,2013-02-17 05:20:00,
2013-02-17 06:30:00,45.2,34.2,30.07,NW,310,0.0,2.0,65,0.00,CLR,,0.00,WeatherDisplay:10.37,2013-02-17 05:30:00,
2013-02-17 06:40:00,45.2,34.5,30.07,NW,310,0.0,1.0,66,0.00,CLR,,0.00,WeatherDisplay:10.37,2013-02-17 05:40:00,
2013-02-17 06:50:00,45.0,34.7,30.07,NW,311,0.0,2.0,67,0.00,CLR,,0.00,WeatherDisplay:10.37,2013-02-17 05:50:00,
2013-02-17 07:00:00,45.0,34.7,30.07,NNW,333,0.0,2.0,67,0.00,CLR,,0.00,WeatherDisplay:10.37,2013-02-17 06:00:00,
2013-02-17 07:10:00,45.1,34.8,30.07,NNW,327,0.0,2.0,67,0.00,CLR,,0.00,WeatherDisplay:10.37,2013-02-17 06:10:00,
2013-02-17 07:20:00,45.2,34.5,30.08,NNW,329,0.0,1.0,66,0.00,CLR,,0.00,WeatherDisplay:10.37,2013-02-17 06:20:00,
2013-02-17 07:30:00,45.4,34.3,30.08,North,360,0.0,2.0,65,0.00,CLR,,0.00,WeatherDisplay:10.37,2013-02-17 06:30:00,
2013-02-17 07:40:00,45.8,34.3,30.08,NW,323,0.0,3.0,64,0.00,CLR,,0.00,WeatherDisplay:10.37,2013-02-17 06:40:00,
2013-02-17 07:50:00,46.2,34.3,30.08,NNW,348,0.0,3.0,63,0.00,CLR,,0.00,WeatherDisplay:10.37,2013-02-17 06:50:00,
2013-02-17 08:00:00,46.9,34.6,30.08,NNE,17,0.0,2.0,62,0.00,CLR,,0.00,WeatherDisplay:10.37,2013-02-17 07:00:00,
2013-02-17 08:10:00,47.5,34.7,30.08,NE,35,0.0,3.0,61,0.00,CLR,,0.00,WeatherDisplay:10.37,2013-02-17 07:10:00,
2013-02-17 08:20:00,47.9,34.7,30.07,NE,53,0.0,3.0,60,0.00,CLR,,0.00,WeatherDisplay:10.37,2013-02-17 07:20:00,
2013-02-17 08:30:00,48.5,35.3,30.08,NNE,15,1.0,4.0,60,0.00,CLR,,0.00,WeatherDisplay:10.37,2013-02-17 07:30:00,
2013-02-17 08:40:00,48.8,35.5,30.08,NNW,334,0.0,3.0,60,0.00,CLR,,0.00,WeatherDisplay:10.37,2013-02-17 07:40:00,
2013-02-17 08:50:00,49.0,35.7,30.08,NNW,331,0.0,3.0,60,0.00,CLR,,0.00,WeatherDisplay:10.37,2013-02-17 07:50:00,
2013-02-17 09:00:00,49.2,35.5,30.08,NE,44,0.0,3.0,59,0.00,CLR,,0.00,WeatherDisplay:10.37,2013-02-17 08:00:00,
2013-02-17 09:10:00,49.6,35.4,30.08,NE,37,0.0,4.0,58,0.00,CLR,,0.00,WeatherDisplay:10.37,2013-02-17 08:10:00,
2013-02-17 09:20:00,49.7,36.0,30.08,East,96,0.0,2.0,59,0.00,CLR,,0.00,WeatherDisplay:10.37,2013-02-17 08:20:00,
2013-02-17 09:30:00,50.1,35.9,30.08,East,96,0.0,2.0,58,0.00,CLR,,0.00,WeatherDisplay:10.37,2013-02-17 08:30:00,
2013-02-17 09:40:00,50.4,35.3,30.08,East,95,1.0,2.0,56,0.00,CLR,,0.00,WeatherDisplay:10.37,2013-02-17 08:40:00,
2013-02-17 09:50:00,50.3,35.6,30.08,East,94,0.0,2.0,57,0.00,CLR,,0.00,WeatherDisplay:10.37,2013-02-17 08:50:00,
2013-02-17 10:00:00,50.6,35.5,30.08,East,94,0.0,2.0,56,0.00,CLR,,0.00,WeatherDisplay:10.37,2013-02-17 09:00:00,
2013-02-17 10:10:00,51.4,35.3,30.08,East,94,0.0,1.0,54,0.00,CLR,,0.00,WeatherDisplay:10.37,2013-02-17 09:10:00,
2013-02-17 10:20:00,51.5,35.4,30.08,East,94,0.0,2.0,54,0.00,CLR,,0.00,WeatherDisplay:10.37,2013-02-17 09:20:00,
2013-02-17 10:30:00,51.7,35.5,30.08,SW,224,1.0,3.0,54,0.00,CLR,,0.00,WeatherDisplay:10.37,2013-02-17 09:30:00,
2013-02-17 10:40:00,51.7,35.6,30.08,South,172,1.0,4.0,54,0.00,CLR,,0.00,WeatherDisplay:10.37,2013-02-17 09:40:00,
2013-02-17 10:50:00,52.3,36.1,30.08,South,175,1.0,6.0,54,0.00,CLR,,0.00,WeatherDisplay:10.37,2013-02-17 09:50:00,
2013-02-17 11:00:00,52.0,34.9,30.08,South,172,2.0,6.0,52,0.00,CLR,,0.00,WeatherDisplay:10.37,2013-02-17 10:00:00,
2013-02-17 11:10:00,52.1,35.0,30.08,SSE,160,1.0,6.0,52,0.00,CLR,,0.00,WeatherDisplay:10.37,2013-02-17 10:10:00,
2013-02-17 11:20:00,52.8,36.1,30.08,SE,145,0.0,5.0,53,0.00,CLR,,0.00,WeatherDisplay:10.37,2013-02-17 10:20:00,
2013-02-17 11:30:00,53.0,37.2,30.08,South,171,1.0,7.0,55,0.00,CLR,,0.00,WeatherDisplay:10.37,2013-02-17 10:30:00,
2013-02-17 11:40:00,52.7,37.9,30.08,SE,141,1.0,5.0,57,0.00,CLR,,0.00,WeatherDisplay:10.37,2013-02-17 10:40:00,
2013-02-17 11:50:00,52.8,38.4,30.08,South,180,1.0,5.0,58,0.00,CLR,,0.00,WeatherDisplay:10.37,2013-02-17 10:50:00,
2013-02-17 12:00:00,52.9,37.2,30.07,SSE,157,1.0,5.0,55,0.00,CLR,,0.00,WeatherDisplay:10.37,2013-02-17 11:00:00,
2013-02-17 12:10:00,53.3,37.5,30.07,SSE,164,3.0,7.0,55,0.00,CLR,,0.00,WeatherDisplay:10.37,2013-02-17 11:10:00,
2013-02-17 12:20:00,53.7,38.3,30.07,SSE,165,1.0,4.0,56,0.00,CLR,,0.00,WeatherDisplay:10.37,2013-02-17 11:20:00,
2013-02-17 12:30:00,54.1,37.8,30.06,South,170,1.0,6.0,54,0.00,CLR,,0.00,WeatherDisplay:10.37,2013-02-17 11:30:00,
2013-02-17 12:40:00,54.1,37.8,30.06,South,177,1.0,4.0,54,0.00,CLR,,0.00,WeatherDisplay:10.37,2013-02-17 11:40:00,
2013-02-17 12:50:00,53.8,38.9,30.06,SSE,166,1.0,4.0,57,0.00,CLR,,0.00,WeatherDisplay:10.37,2013-02-17 11:50:00,
2013-02-17 13:00:00,53.9,39.9,30.05,SE,141,1.0,6.0,59,0.00,CLR,,0.00,WeatherDisplay:10.37,2013-02-17 12:00:00,
2013-02-17 13:10:00,54.7,40.6,30.05,South,173,1.0,6.0,59,0.00,CLR,,0.00,WeatherDisplay:10.37,2013-02-17 12:10:00,
2013-02-17 13:20:00,55.1,40.6,30.05,SSE,154,1.0,7.0,58,0.00,CLR,,0.00,WeatherDisplay:10.37,2013-02-17 12:20:00,
2013-02-17 13:30:00,55.3,39.9,30.04,SSE,158,1.0,5.0,56,0.00,CLR,,0.00,WeatherDisplay:10.37,2013-02-17 12:30:00,
2013-02-17 13:40:00,55.2,40.3,30.04,SE,145,2.0,9.0,57,0.00,CLR,,0.00,WeatherDisplay:10.37,2013-02-17 12:40:00,
2013-02-17 13:50:00,55.1,41.0,30.04,SSW,195,2.0,7.0,59,0.00,CLR,,0.00,WeatherDisplay:10.37,2013-02-17 12:50:00,
2013-02-17 14:00:00,55.1,40.6,30.04,SSW,206,2.0,7.0,58,0.00,CLR,,0.00,WeatherDisplay:10.37,2013-02-17 13:00:00,
2013-02-17 14:10:00,53.9,40.4,30.04,SSW,210,3.0,7.0,60,0.00,CLR,,0.00,WeatherDisplay:10.37,2013-02-17 13:10:00,
2013-02-17 14:20:00,52.9,39.4,30.04,SW,232,2.0,7.0,60,0.00,CLR,,0.00,WeatherDisplay:10.37,2013-02-17 13:20:00,
2013-02-17 14:30:00,53.2,40.9,30.03,South,172,1.0,8.0,63,0.00,CLR,,0.00,WeatherDisplay:10.37,2013-02-17 13:30:00,
2013-02-17 14:40:00,54.1,41.4,30.03,South,185,0.0,5.0,62,0.00,CLR,,0.00,WeatherDisplay:10.37,2013-02-17 13:40:00,
2013-02-17 14:50:00,53.9,42.0,30.03,WSW,246,2.0,9.0,64,0.00,CLR,,0.00,WeatherDisplay:10.37,2013-02-17 13:50:00,
2013-02-17 15:00:00,53.8,42.3,30.03,SW,227,1.0,7.0,65,0.00,CLR,,0.00,WeatherDisplay:10.37,2013-02-17 14:00:00,
2013-02-17 15:10:00,54.3,42.0,30.03,SSW,200,2.0,7.0,63,0.00,CLR,,0.00,WeatherDisplay:10.37,2013-02-17 14:10:00,
2013-02-17 15:20:00,54.1,41.8,30.03,SSW,200,3.0,8.0,63,0.00,CLR,,0.00,WeatherDisplay:10.37,2013-02-17 14:20:00,
2013-02-17 15:30:00,53.5,42.0,30.03,SSW,206,1.0,10.0,65,0.00,CLR,,0.00,WeatherDisplay:10.37,2013-02-17 14:30:00,
2013-02-17 15:40:00,52.8,41.4,30.03,WSW,245,2.0,9.0,65,0.00,CLR,,0.00,WeatherDisplay:10.37,2013-02-17 14:40:00,
2013-02-17 15:50:00,52.9,42.3,30.03,SW,216,2.0,5.0,67,0.00,CLR,,0.00,WeatherDisplay:10.37,2013-02-17 14:50:00,
2013-02-17 16:00:00,52.6,41.9,30.03,SW,229,2.0,7.0,67,0.00,CLR,,0.00,WeatherDisplay:10.37,2013-02-17 15:00:00,
2013-02-17 16:10:00,52.1,42.6,30.03,SSW,210,2.0,7.0,70,0.00,CLR,,0.00,WeatherDisplay:10.37,2013-02-17 15:10:00,
2013-02-17 16:20:00,51.7,42.6,30.03,WSW,252,2.0,5.0,71,0.00,CLR,,0.00,WeatherDisplay:10.37,2013-02-17 15:20:00,
2013-02-17 16:30:00,51.6,42.5,30.02,WSW,238,2.0,6.0,71,0.00,CLR,,0.00,WeatherDisplay:10.37,2013-02-17 15:30:00,
2013-02-17 16:40:00,51.2,42.5,30.03,SW,234,2.0,8.0,72,0.00,CLR,,0.00,WeatherDisplay:10.37,2013-02-17 15:40:00,
2013-02-17 16:50:00,51.1,42.8,30.03,SSW,201,0.0,7.0,73,0.00,CLR,,0.00,WeatherDisplay:10.37,2013-02-17 15:50:00,
2013-02-17 17:00:00,51.4,43.0,30.03,SW,215,2.0,4.0,73,0.00,CLR,,0.00,WeatherDisplay:10.37,2013-02-17 16:00:00,
2013-02-17 17:10:00,49.8,42.2,30.03,West,266,6.0,13.0,75,0.00,CLR,,0.00,WeatherDisplay:10.37,2013-02-17 16:10:00,
2013-02-17 17:20:00,48.3,41.8,30.03,WSW,258,5.0,10.0,78,0.00,CLR,,0.00,WeatherDisplay:10.37,2013-02-17 16:20:00,
2013-02-17 17:30:00,47.9,41.1,30.02,West,267,7.0,12.0,77,0.00,CLR,,0.00,WeatherDisplay:10.37,2013-02-17 16:30:00,
2013-02-17 17:40:00,48.1,41.2,30.03,West,273,3.0,10.0,77,0.00,CLR,,0.00,WeatherDisplay:10.37,2013-02-17 16:40:00,
2013-02-17 17:50:00,47.2,39.7,30.03,NNW,338,0.0,2.0,75,0.00,CLR,,0.00,WeatherDisplay:10.37,2013-02-17 16:50:00,
2013-02-17 18:00:00,47.2,39.3,30.03,NNW,338,0.0,2.0,74,0.00,CLR,,0.00,WeatherDisplay:10.37,2013-02-17 17:00:00,
2013-02-17 18:10:00,47.0,39.1,30.04,NNW,338,0.0,0.0,74,0.00,CLR,,0.00,WeatherDisplay:10.37,2013-02-17 17:10:00,
2013-02-17 18:20:00,46.8,38.9,30.04,NNW,338,0.0,2.0,74,0.00,CLR,,0.00,WeatherDisplay:10.37,2013-02-17 17:20:00,
2013-02-17 18:30:00,46.7,39.5,30.03,NNW,338,0.0,1.0,76,0.00,CLR,,0.00,WeatherDisplay:10.37,2013-02-17 17:30:00,
2013-02-17 18:40:00,46.5,39.7,30.04,NNW,338,0.0,2.0,77,0.00,CLR,,0.00,WeatherDisplay:10.37,2013-02-17 17:40:00,
2013-02-17 18:50:00,46.3,39.8,30.03,NNW,338,0.0,1.0,78,0.00,CLR,,0.00,WeatherDisplay:10.37,2013-02-17 17:50:00,
2013-02-17 19:00:00,46.3,40.1,30.04,NNW,338,0.0,1.0,79,0.00,CLR,,0.00,WeatherDisplay:10.37,2013-02-17 18:00:00,
2013-02-17 19:10:00,46.2,40.0,30.03,NNW,338,0.0,0.0,79,0.00,CLR,,0.00,WeatherDisplay:10.37,2013-02-17 18:10:00,
2013-02-17 19:20:00,46.1,39.9,30.03,NNW,338,0.0,0.0,79,0.00,CLR,,0.00,WeatherDisplay:10.37,2013-02-17 18:20:00,
2013-02-17 19:30:00,46.0,40.2,30.03,NNW,338,0.0,0.0,80,0.00,CLR,,0.00,WeatherDisplay:10.37,2013-02-17 18:30:00,
2013-02-17 19:40:00,45.9,40.1,30.03,NNW,338,0.0,0.0,80,0.00,CLR,,0.00,WeatherDisplay:10.37,2013-02-17 18:40:00,
2013-02-17 19:50:00,45.9,40.1,30.03,NNW,338,0.0,0.0,80,0.00,CLR,,0.00,WeatherDisplay:10.37,2013-02-17 18:50:00,
2013-02-17 20:00:00,45.7,39.9,30.03,NNW,338,0.0,0.0,80,0.00,CLR,,0.00,WeatherDisplay:10.37,2013-02-17 19:00:00,
2013-02-17 20:10:00,45.5,39.7,30.03,NNW,338,0.0,0.0,80,0.00,CLR,,0.00,WeatherDisplay:10.37,2013-02-17 19:10:00,
2013-02-17 20:20:00,45.5,40.0,30.03,NNW,338,0.0,0.0,81,0.00,CLR,,0.00,WeatherDisplay:10.37,2013-02-17 19:20:00,
2013-02-17 20:30:00,45.5,40.0,30.03,NNW,338,0.0,0.0,81,0.00,CLR,,0.00,WeatherDisplay:10.37,2013-02-17 19:30:00,
2013-02-17 20:40:00,45.5,40.0,30.02,NNW,338,0.0,0.0,81,0.00,CLR,,0.00,WeatherDisplay:10.37,2013-02-17 19:40:00,
2013-02-17 20:50:00,45.5,39.7,30.02,NNW,338,0.0,2.0,80,0.00,CLR,,0.00,WeatherDisplay:10.37,2013-02-17 19:50:00,
2013-02-17 21:00:00,45.7,39.6,30.01,NNW,338,0.0,1.0,79,0.00,CLR,,0.00,WeatherDisplay:10.37,2013-02-17 20:00:00,
2013-02-17 21:10:00,45.9,39.4,30.01,NNW,338,0.0,0.0,78,0.00,CLR,,0.00,WeatherDisplay:10.37,2013-02-17 20:10:00,